NORTHEAST SUFFOLK  -  Winter Weather Advisory Winter Weather Advisory        NORTHERN NASSAU  -  Winter Weather Advisory Winter Weather Advisory        NORTHWEST SUFFOLK  -  Winter Weather Advisory Winter Weather Advisory        SOUTHEAST SUFFOLK  -  Winter Weather Advisory Winter Weather Advisory        SOUTHERN NASSAU  -  Winter Weather Advisory Winter Weather Advisory        SOUTHWEST SUFFOLK  -  Winter Weather Advisory Winter Weather Advisory      

Active alerts

Northern Nassau
  Details for Northern Nassau Winter Weather Advisory
Southern Nassau
  Details for Southern Nassau Winter Weather Advisory
Northwest Suffolk
  Details for Northwest Suffolk Winter Weather Advisory
Southwest Suffolk
  Details for Southwest Suffolk Winter Weather Advisory
Northeast Suffolk
  Details for Northeast Suffolk Winter Weather Advisory
Southeast Suffolk
  Details for Southeast Suffolk Winter Weather Advisory


WXM80 ListenWXM80 Stop

You find our weather info also at:

UK Metoffice

WeatherCloud

Weather Underground

Northeastern Weather Network

AWEKAS

Citizen Weather Observer Program (CWOP)

HAMweather, WeatherForYou, PWS Weather


Weather Underground History page Text

Daily Summary for January 29, 2017 Units:  Metric    English   Both
« Previous Day
Next Day »
Daily Weekly Monthly Yearly Custom
  High: Low: Average:
Temperature: 6.5 °C -1.1 °C 2.3 °C
Dew Point: -1.4 °C -7.5 °C -4.7 °C
Humidity: 82 % 38 % 61 %
Wind Speed: 17.7 km/h 0 km/h 3.9 km/h
Wind Gust: 27.4 km/h - -
Wind:- - WSW
Pressure: 1006 hPa 1003.3 hPa -
Precipitation: 0 mm    
Historical Graphs
 
 
Tabular Data for January 29, 2017
Time Temperature Dew Point Pressure Wind Wind Speed Wind Gust Humidity Rainfall Rate (Hourly)
00:04 1.4 °C -4 °C 1006 hPa SW 1.8 km/h 3.7 km/h 67 % 0 mm
00:09 1.4 °C -3.8 °C 1005.6 hPa SSW 1.6 km/h 7.4 km/h 68 % 0 mm
00:14 1.5 °C -3.9 °C 1005.6 hPa SSW 0.8 km/h 5.6 km/h 67 % 0 mm
00:19 1.6 °C -3.7 °C 1005.6 hPa SW 1.4 km/h 3.7 km/h 68 % 0 mm
00:24 1.6 °C -3.9 °C 1005.6 hPa SW 3.5 km/h 5.6 km/h 67 % 0 mm
00:29 1.6 °C -3.7 °C 1005.6 hPa SW 0.8 km/h 1.9 km/h 68 % 0 mm
00:34 1.6 °C -3.7 °C 1005.3 hPa SW 0.2 km/h 1.9 km/h 68 % 0 mm
00:39 1.5 °C -3.9 °C 1005.3 hPa Calm   1.9 km/h 67 % 0 mm
00:44 1.5 °C -3.9 °C 1005.3 hPa Calm     67 % 0 mm
00:49 1.4 °C -3.8 °C 1005.3 hPa Calm     68 % 0 mm
00:54 1.4 °C -4.1 °C 1005.3 hPa Calm     67 % 0 mm
00:59 1.3 °C -4 °C 1005 hPa Calm     68 % 0 mm
01:04 1.2 °C -4.1 °C 1005 hPa Calm     68 % 0 mm
01:09 1.1 °C -3.9 °C 1005 hPa Calm     69 % 0 mm
01:14 1 °C -4.1 °C 1004.6 hPa Calm     69 % 0 mm
01:19 0.8 °C -4 °C 1004.6 hPa Calm     70 % 0 mm
01:24 0.7 °C -4.2 °C 1004.6 hPa Calm     70 % 0 mm
01:30 0.6 °C -4.3 °C 1005 hPa Calm     70 % 0 mm
01:35 0.4 °C -4.3 °C 1004.6 hPa Calm     71 % 0 mm
01:40 0.3 °C -4.2 °C 1005 hPa SW 0.2 km/h 1.9 km/h 72 % 0 mm
01:45 0.1 °C -4.3 °C 1005 hPa Calm     72 % 0 mm
01:50 0 °C -4.3 °C 1005 hPa Calm     73 % 0 mm
01:55 -0.2 °C -4.4 °C 1005 hPa Calm   1.6 km/h 73 % 0 mm
02:00 -0.2 °C -4.3 °C 1005 hPa Calm     74 % 0 mm
02:05 -0.3 °C -4.4 °C 1005 hPa Calm     74 % 0 mm
02:10 -0.4 °C -4.5 °C 1005 hPa SW 0.6 km/h 3.7 km/h 74 % 0 mm
02:15 -0.5 °C -4.4 °C 1005 hPa SW 0.8 km/h 3.7 km/h 75 % 0 mm
02:20 -0.5 °C -4.4 °C 1005 hPa Calm   1.9 km/h 75 % 0 mm
02:25 -0.6 °C -4.3 °C 1005 hPa Calm   1.9 km/h 76 % 0 mm
02:30 -0.6 °C -4.3 °C 1005 hPa Calm     76 % 0 mm
02:35 -0.7 °C -4.2 °C 1005 hPa Calm     77 % 0 mm
02:40 -0.7 °C -4.1 °C 1005 hPa SSW 0.6 km/h 1.6 km/h 78 % 0 mm
02:45 -0.7 °C -4.1 °C 1005 hPa SSW 0.6 km/h 3.2 km/h 78 % 0 mm
02:50 -0.7 °C -4.1 °C 1005 hPa Calm     78 % 0 mm
02:55 -0.7 °C -4.1 °C 1004.6 hPa SSW 0.8 km/h 1.6 km/h 78 % 0 mm
03:00 -0.7 °C -3.8 °C 1004.6 hPa Calm   1.9 km/h 79 % 0 mm
03:06 -0.7 °C -3.9 °C 1004.6 hPa SSW 0.2 km/h 1.9 km/h 79 % 0 mm
03:11 -0.7 °C -3.7 °C 1004.6 hPa Calm     80 % 0 mm
03:16 -0.7 °C -3.7 °C 1004.6 hPa Calm   1.9 km/h 80 % 0 mm
03:21 -0.7 °C -3.7 °C 1004.6 hPa Calm   1.9 km/h 80 % 0 mm
03:26 -0.8 °C -3.8 °C 1004.6 hPa SSW 0.8 km/h 3.7 km/h 80 % 0 mm
03:31 -0.8 °C -3.8 °C 1004.6 hPa SW 1.4 km/h 3.7 km/h 80 % 0 mm
03:36 -0.8 °C -3.8 °C 1004.6 hPa SW 0.2 km/h 3.2 km/h 80 % 0 mm
03:41 -0.8 °C -3.8 °C 1004.6 hPa SW 1.8 km/h 3.7 km/h 80 % 0 mm
03:46 -0.8 °C -3.8 °C 1004.3 hPa Calm     80 % 0 mm
03:51 -0.8 °C -3.8 °C 1004.6 hPa SW 1.1 km/h 3.7 km/h 80 % 0 mm
03:56 -0.8 °C -3.8 °C 1004.6 hPa SW 0.6 km/h 3.2 km/h 80 % 0 mm
04:01 -0.9 °C -3.9 °C 1004.6 hPa Calm     80 % 0 mm
04:06 -0.9 °C -3.9 °C 1004.6 hPa Calm   1.9 km/h 80 % 0 mm
04:11 -1 °C -4 °C 1004.6 hPa SSW 0.5 km/h 1.9 km/h 80 % 0 mm
04:16 -1 °C -4 °C 1004.6 hPa SSW 1.1 km/h 3.7 km/h 80 % 0 mm
04:21 -1.1 °C -3.9 °C 1004.6 hPa SSW 1.4 km/h 4.8 km/h 81 % 0 mm
04:26 -1.1 °C -3.9 °C 1004.6 hPa SSW 1 km/h 5.6 km/h 81 % 0 mm
04:31 -1.1 °C -3.7 °C 1005 hPa WSW 2.9 km/h 5.6 km/h 82 % 0 mm
04:37 -1.1 °C -3.7 °C 1005 hPa SSW 7.2 km/h 7.2 km/h 82 % 0 mm
04:42 -0.9 °C -3.6 °C 1005 hPa SW 4.3 km/h 6.4 km/h 82 % 0 mm
04:47 -0.8 °C -3.5 °C 1005 hPa SW 5.5 km/h 9.3 km/h 82 % 0 mm
04:52 -0.7 °C -3.3 °C 1005 hPa WSW 5.1 km/h 9.7 km/h 82 % 0 mm
04:57 -0.4 °C -3.2 °C 1005 hPa South 6 km/h 11.1 km/h 82 % 0 mm
05:02 -0.3 °C -3 °C 1005 hPa SSW 2.9 km/h 6.4 km/h 82 % 0 mm
05:07 -0.1 °C -2.8 °C 1005 hPa SW 2.6 km/h 5.6 km/h 82 % 0 mm
05:12 0 °C -2.9 °C 1005 hPa SW 5 km/h 7.4 km/h 81 % 0 mm
05:17 0.1 °C -2.8 °C 1005 hPa SW 3.5 km/h 5.6 km/h 81 % 0 mm
05:22 0.1 °C -2.8 °C 1005 hPa SW 3.9 km/h 7.4 km/h 81 % 0 mm
05:27 0.2 °C -2.9 °C 1005 hPa SW 0.2 km/h 1.6 km/h 80 % 0 mm
05:32 0.2 °C -2.9 °C 1005 hPa SW 1.6 km/h 6.4 km/h 80 % 0 mm
05:37 0.2 °C -3 °C 1005 hPa SW 1.9 km/h 5.6 km/h 79 % 0 mm
05:42 0.2 °C -3 °C 1005 hPa SW 4.2 km/h 6.4 km/h 79 % 0 mm
05:47 0.2 °C -3.1 °C 1005 hPa SW 2.9 km/h 7.4 km/h 79 % 0 mm
05:52 0.2 °C -3.2 °C 1005 hPa SW 2.4 km/h 4.8 km/h 78 % 0 mm
05:57 0.2 °C -3.2 °C 1005 hPa SW 1.9 km/h 3.7 km/h 78 % 0 mm
06:07 0.2 °C -3.2 °C 1004.6 hPa SSW 1.9 km/h 3.7 km/h 78 % 0 mm
06:12 0.2 °C -3.2 °C 1004.6 hPa SW 2.4 km/h 5.6 km/h 78 % 0 mm
06:17 0.2 °C -3.2 °C 1005 hPa South 0.3 km/h 5.6 km/h 78 % 0 mm
06:22 0.2 °C -3.2 °C 1004.6 hPa Calm     78 % 0 mm
06:27 0.2 °C -3.2 °C 1005 hPa SSW 1.1 km/h 5.6 km/h 78 % 0 mm
06:33 0.2 °C -3.2 °C 1004.6 hPa SW 3.2 km/h 5.6 km/h 78 % 0 mm
06:38 0.2 °C -3.2 °C 1004.6 hPa Calm   1.9 km/h 78 % 0 mm
06:43 0.2 °C -3.2 °C 1004.6 hPa SSW 3.7 km/h 5.6 km/h 78 % 0 mm
06:48 0.3 °C -3.1 °C 1004.6 hPa SW 2.7 km/h 5.6 km/h 78 % 0 mm
06:53 0.3 °C -3.1 °C 1004.6 hPa SW 2.3 km/h 5.6 km/h 78 % 0 mm
06:58 0.3 °C -3.1 °C 1004.6 hPa SSW 2.1 km/h 5.6 km/h 78 % 0 mm
07:03 0.3 °C -3.1 °C 1004.6 hPa WSW 3.1 km/h 5.6 km/h 78 % 0 mm
07:08 0.3 °C -3.2 °C 1004.6 hPa SW 1.6 km/h 5.6 km/h 77 % 0 mm
07:13 0.4 °C -3.2 °C 1004.6 hPa SW 1 km/h 3.7 km/h 77 % 0 mm
07:18 0.4 °C -3.2 °C 1004.6 hPa SW 1.3 km/h 5.6 km/h 77 % 0 mm
07:23 0.4 °C -3.1 °C 1004.6 hPa SW 1.4 km/h 7.4 km/h 77 % 0 mm
07:28 0.5 °C -3.1 °C 1004.6 hPa SW 1.4 km/h 5.6 km/h 77 % 0 mm
07:33 0.6 °C -3.2 °C 1005 hPa SW 3.9 km/h 5.6 km/h 76 % 0 mm
07:38 0.7 °C -3.1 °C 1004.6 hPa WSW 5.8 km/h 7.4 km/h 76 % 0 mm
07:43 0.8 °C -3.1 °C 1005 hPa SW 1.6 km/h 5.6 km/h 75 % 0 mm
07:48 0.9 °C -3.2 °C 1005 hPa WSW 1.4 km/h 5.6 km/h 74 % 0 mm
07:53 1.1 °C -3.1 °C 1005 hPa SSW 4.3 km/h 6.4 km/h 74 % 0 mm
07:58 1.2 °C -3.1 °C 1005 hPa SW 4 km/h 9.7 km/h 73 % 0 mm
08:04 1.3 °C -2.8 °C 1005 hPa SSW 5.1 km/h 6.4 km/h 74 % 0 mm
08:09 1.4 °C -2.9 °C 1005 hPa SW 4.8 km/h 12.9 km/h 73 % 0 mm
08:14 1.6 °C -2.8 °C 1005 hPa SW 1.6 km/h 11.3 km/h 73 % 0 mm
08:19 1.7 °C -2.6 °C 1005 hPa SW 1.6 km/h 19.3 km/h 73 % 0 mm
08:24 1.9 °C -2.6 °C 1005 hPa South 6.8 km/h 7.4 km/h 72 % 0 mm
08:29 2.1 °C -2.7 °C 1005.3 hPa SSW 9.7 km/h 19.3 km/h 71 % 0 mm
08:34 2.3 °C -2.6 °C 1005.3 hPa SSW 8 km/h 19.3 km/h 70 % 0 mm
08:39 2.4 °C -2.7 °C 1005 hPa SW 9.7 km/h 16.1 km/h 69 % 0 mm
08:44 2.7 °C -2.4 °C 1005.3 hPa SW 9.7 km/h 19.3 km/h 69 % 0 mm
08:49 2.8 °C -2.5 °C 1005.3 hPa SW 3.2 km/h 19.3 km/h 68 % 0 mm
08:54 3 °C -2.3 °C 1005.3 hPa SW 8 km/h 20.9 km/h 68 % 0 mm
08:59 3.2 °C -2.2 °C 1005.3 hPa SW 9.5 km/h 11.1 km/h 68 % 0 mm
09:04 3.3 °C -2.1 °C 1005 hPa SSW 9.7 km/h 19.3 km/h 68 % 0 mm
09:09 3.4 °C -2.1 °C 1005.3 hPa SSW 9.7 km/h 19.3 km/h 67 % 0 mm
09:14 3.7 °C -1.9 °C 1005.3 hPa SW 8 km/h 22.5 km/h 67 % 0 mm
09:19 3.8 °C -1.9 °C 1005 hPa SW 9.7 km/h 19.3 km/h 66 % 0 mm
09:24 3.9 °C -1.8 °C 1005.3 hPa SW 8 km/h 16.1 km/h 66 % 0 mm
09:29 4.1 °C -1.9 °C 1005.3 hPa SW 8 km/h 16.1 km/h 65 % 0 mm
09:33 4.2 °C -1.8 °C 1005.3 hPa SW 3.5 km/h 9.3 km/h 65 % 0 mm
09:39 4.3 °C -1.9 °C 1005.3 hPa WSW 3.2 km/h 12.9 km/h 64 % 0 mm
09:44 4.4 °C -1.8 °C 1005.6 hPa WSW 8 km/h 16.1 km/h 64 % 0 mm
09:49 4.5 °C -1.7 °C 1005.3 hPa WSW 11.3 km/h 16.1 km/h 64 % 0 mm
09:54 4.6 °C -1.6 °C 1005.3 hPa West 9.3 km/h 18.5 km/h 64 % 0 mm
09:59 4.8 °C -1.7 °C 1005.6 hPa WNW 8.7 km/h 14.8 km/h 63 % 0 mm
10:04 5.1 °C -1.4 °C 1005.6 hPa SSW 4.3 km/h 16.7 km/h 63 % 0 mm
10:09 5.2 °C -1.9 °C 1005.6 hPa West 11.9 km/h 22.2 km/h 60 % 0 mm
10:14 5.2 °C -2.4 °C 1005.6 hPa West 14 km/h 22.2 km/h 58 % 0 mm
10:19 5.2 °C -2.2 °C 1005.3 hPa West 6.6 km/h 11.3 km/h 59 % 0 mm
10:24 5.4 °C -2.2 °C 1005.3 hPa West 11.1 km/h 18.5 km/h 58 % 0 mm
10:29 5.6 °C -2.8 °C 1005.3 hPa WNW 10.9 km/h 16.7 km/h 55 % 0 mm
10:34 5.6 °C -3 °C 1005.3 hPa NW 5.6 km/h 13 km/h 54 % 0 mm
10:39 5.5 °C -2.8 °C 1005.3 hPa WSW 11.6 km/h 16.7 km/h 55 % 0 mm
10:44 5.4 °C -2.9 °C 1005.3 hPa WSW 8 km/h 13 km/h 55 % 0 mm
10:49 5.4 °C -3.1 °C 1005.3 hPa SW 12.6 km/h 20.4 km/h 54 % 0 mm
10:54 5.3 °C -3.3 °C 1005.3 hPa WSW 6.8 km/h 25.9 km/h 54 % 0 mm
10:59 5.1 °C -3.5 °C 1005.3 hPa WSW 7.2 km/h 16.7 km/h 54 % 0 mm
11:04 4.9 °C -3.3 °C 1005.3 hPa WSW 10.3 km/h 14.8 km/h 55 % 0 mm
11:09 4.8 °C -3.3 °C 1005.3 hPa West 10.8 km/h 14.8 km/h 56 % 0 mm
11:14 4.8 °C -3.3 °C 1005.3 hPa WSW 10.1 km/h 17.7 km/h 56 % 0 mm
11:20 4.8 °C -3.4 °C 1005.3 hPa SW 12.4 km/h 20.4 km/h 55 % 0 mm
11:25 4.8 °C -3.5 °C 1005 hPa WSW 5.5 km/h 14.8 km/h 55 % 0 mm
11:30 4.8 °C -3.4 °C 1005 hPa WSW 13 km/h 20.4 km/h 55 % 0 mm
11:35 4.9 °C -3.3 °C 1005 hPa SW 14.6 km/h 24.1 km/h 55 % 0 mm
11:40 5.1 °C -3.5 °C 1005 hPa West 12.6 km/h 20.9 km/h 54 % 0 mm
11:44 5.1 °C -3.4 °C 1005 hPa West 7.6 km/h 14.8 km/h 54 % 0 mm
11:49 5.2 °C -3.3 °C 1005 hPa WSW 10.5 km/h 22.2 km/h 54 % 0 mm
11:54 5.3 °C -3.2 °C 1004.6 hPa WSW 15 km/h 24.1 km/h 54 % 0 mm
11:59 5.3 °C -3.7 °C 1004.6 hPa SW 8.5 km/h 18.5 km/h 52 % 0 mm
12:04 5.4 °C -4.2 °C 1004.6 hPa WSW 10.8 km/h 14.8 km/h 50 % 0 mm
12:09 5.4 °C -4.4 °C 1004.6 hPa West 17.7 km/h 20.4 km/h 49 % 0 mm
12:14 5.4 °C -4.8 °C 1004.6 hPa WNW 9.3 km/h 20.9 km/h 48 % 0 mm
12:19 5.4 °C -5.1 °C 1004.3 hPa WSW 14 km/h 27.4 km/h 47 % 0 mm
12:24 5.4 °C -5.3 °C 1004.3 hPa WNW 11.7 km/h 18.5 km/h 46 % 0 mm
12:29 5.6 °C -4.9 °C 1004.3 hPa WSW 12.2 km/h 14.8 km/h 47 % 0 mm
12:34 5.7 °C -4.5 °C 1004.3 hPa SSW 10.3 km/h 12.9 km/h 48 % 0 mm
12:40 5.8 °C -4.9 °C 1003.9 hPa NW 9.2 km/h 18.5 km/h 46 % 0 mm
12:45 5.9 °C -4.9 °C 1003.9 hPa NNW 2.6 km/h 9.3 km/h 46 % 0 mm
12:50 5.9 °C -5.1 °C 1003.9 hPa WNW 10.8 km/h 19.3 km/h 45 % 0 mm
12:55 5.9 °C -5.4 °C 1003.9 hPa WSW 10.9 km/h 18.5 km/h 44 % 0 mm
13:00 5.8 °C -5.2 °C 1003.9 hPa West 8.9 km/h 16.7 km/h 45 % 0 mm
13:05 5.8 °C -5.5 °C 1003.9 hPa SW 6.4 km/h 14.8 km/h 44 % 0 mm
13:10 5.9 °C -5.4 °C 1003.6 hPa WNW 10.3 km/h 16.7 km/h 44 % 0 mm
13:15 6 °C -5.1 °C 1003.6 hPa NW 9 km/h 13 km/h 45 % 0 mm
13:20 6 °C -5.3 °C 1003.6 hPa West 12.9 km/h 20.4 km/h 44 % 0 mm
13:25 5.9 °C -5.4 °C 1003.6 hPa WSW 9.3 km/h 14.8 km/h 44 % 0 mm
13:30 5.9 °C -5.4 °C 1003.6 hPa WSW 8.7 km/h 14.8 km/h 44 % 0 mm
13:35 6.1 °C -5 °C 1003.6 hPa West 10.9 km/h 20.9 km/h 45 % 0 mm
13:40 6.1 °C -5.3 °C 1003.3 hPa West 7.1 km/h 9.3 km/h 44 % 0 mm
13:45 6.2 °C -4.9 °C 1003.3 hPa West 4 km/h 9.7 km/h 45 % 0 mm
13:50 6.3 °C -4.8 °C 1003.3 hPa NNW 9.3 km/h 13 km/h 45 % 0 mm
13:55 6.3 °C -5.3 °C 1003.3 hPa SW 11.6 km/h 14.5 km/h 43 % 0 mm
14:00 6.4 °C -5.3 °C 1003.3 hPa WNW 7.1 km/h 13 km/h 43 % 0 mm
14:06 6.4 °C -4.7 °C 1003.3 hPa WSW 9.8 km/h 16.1 km/h 45 % 0 mm
14:11 6.4 °C -4.9 °C 1003.3 hPa WNW 11.7 km/h 14.8 km/h 44 % 0 mm
14:16 6.4 °C -5.3 °C 1003.3 hPa SW 3.9 km/h 8 km/h 43 % 0 mm
14:21 6.5 °C -4.6 °C 1003.3 hPa NW 6.8 km/h 9.3 km/h 45 % 0 mm
14:26 6.4 °C -5.6 °C 1003.3 hPa NW 6.9 km/h 13 km/h 42 % 0 mm
14:31 6.3 °C -6 °C 1003.3 hPa WNW 3.4 km/h 9.3 km/h 41 % 0 mm
14:36 6.3 °C -5.7 °C 1003.3 hPa WNW 11.9 km/h 16.7 km/h 42 % 0 mm
14:41 6.2 °C -6.8 °C 1003.3 hPa West 6.8 km/h 13 km/h 39 % 0 mm
14:42 6.2 °C -6.8 °C 1003.6 hPa WNW 5 km/h 13 km/h 39 % 0 mm
14:47 6.1 °C -7.2 °C 1003.6 hPa NW 8.2 km/h 14.8 km/h 38 % 0 mm
14:52 5.9 °C -7.3 °C 1003.6 hPa NW 6 km/h 14.8 km/h 38 % 0 mm
14:57 5.9 °C -6.7 °C 1003.6 hPa WNW 5.1 km/h 16.7 km/h 40 % 0 mm
15:02 5.8 °C -7.1 °C 1003.6 hPa NW 6.9 km/h 14.8 km/h 39 % 0 mm
15:07 5.8 °C -7.1 °C 1003.6 hPa WNW 10.5 km/h 18.5 km/h 39 % 0 mm
15:12 5.7 °C -7.2 °C 1003.6 hPa West 6.8 km/h 11.1 km/h 39 % 0 mm
15:17 5.6 °C -7.3 °C 1003.6 hPa WNW 3.7 km/h 7.4 km/h 39 % 0 mm
15:22 5.6 °C -7 °C 1003.9 hPa WNW 4.7 km/h 7.4 km/h 40 % 0 mm
15:27 5.5 °C -7.1 °C 1003.9 hPa WNW 2.7 km/h 5.6 km/h 40 % 0 mm
15:32 5.5 °C -7.4 °C 1003.9 hPa SW 4.2 km/h 8 km/h 39 % 0 mm
15:37 5.4 °C -7.4 °C 1003.9 hPa WNW 6.1 km/h 11.1 km/h 39 % 0 mm
15:42 5.4 °C -7.5 °C 1003.9 hPa WNW 7.1 km/h 9.3 km/h 39 % 0 mm
15:47 5.4 °C -7.5 °C 1004.3 hPa SW 4.2 km/h 9.3 km/h 39 % 0 mm
15:52 5.3 °C -7.2 °C 1004.3 hPa WNW 4 km/h 9.3 km/h 40 % 0 mm
15:57 5.3 °C -6.9 °C 1003.9 hPa WNW 3.9 km/h 8 km/h 41 % 0 mm
16:03 5.3 °C -6.9 °C 1004.3 hPa NW 4.7 km/h 9.3 km/h 41 % 0 mm
16:08 5.3 °C -6.6 °C 1004.3 hPa SW 5.6 km/h 9.7 km/h 42 % 0 mm
16:13 5.3 °C -6.6 °C 1004.3 hPa West 2.9 km/h 11.1 km/h 42 % 0 mm
16:18 5.2 °C -6.7 °C 1004.3 hPa West 8.7 km/h 18.5 km/h 42 % 0 mm
16:23 5.2 °C -6.7 °C 1004.3 hPa West 6 km/h 16.1 km/h 42 % 0 mm
16:28 5.1 °C -6.4 °C 1004.3 hPa WNW 9.2 km/h 14.8 km/h 43 % 0 mm
16:33 5.1 °C -6.5 °C 1004.3 hPa WSW 7.7 km/h 11.3 km/h 43 % 0 mm
16:38 4.9 °C -6.6 °C 1004.3 hPa West 6.1 km/h 13 km/h 43 % 0 mm
16:43 4.8 °C -6.7 °C 1004.3 hPa SW 6 km/h 13 km/h 43 % 0 mm
16:48 4.8 °C -6.8 °C 1004.6 hPa WSW 5 km/h 8 km/h 43 % 0 mm
16:53 4.7 °C -6.6 °C 1004.6 hPa WNW 7.7 km/h 13 km/h 44 % 0 mm
16:58 4.6 °C -6.9 °C 1004.6 hPa NW 5.8 km/h 14.5 km/h 43 % 0 mm
17:03 4.5 °C -7 °C 1004.6 hPa West 8.9 km/h 11.3 km/h 43 % 0 mm
17:08 4.4 °C -6.8 °C 1004.6 hPa West 7.2 km/h 14.8 km/h 44 % 0 mm
17:13 4.3 °C -6.9 °C 1004.6 hPa WNW 4.8 km/h 13 km/h 44 % 0 mm
17:18 4.3 °C -6.6 °C 1004.6 hPa WNW 8.5 km/h 11.1 km/h 45 % 0 mm
17:23 4.2 °C -6.4 °C 1004.6 hPa WSW 6.8 km/h 11.1 km/h 46 % 0 mm
17:29 4.2 °C -6.2 °C 1005 hPa WNW 2.9 km/h 14.8 km/h 47 % 0 mm
17:34 4.1 °C -5.7 °C 1005 hPa West 3.2 km/h 6.4 km/h 49 % 0 mm
17:39 4.1 °C -5.4 °C 1005 hPa Calm   8 km/h 50 % 0 mm
17:44 4 °C -5.2 °C 1005 hPa WNW 1.6 km/h 11.3 km/h 51 % 0 mm
17:49 3.9 °C -4.8 °C 1005 hPa Calm   8 km/h 53 % 0 mm
17:54 3.8 °C -4.6 °C 1005 hPa WSW 1.6 km/h 12.9 km/h 54 % 0 mm
17:59 3.8 °C -4.7 °C 1005 hPa SW 0.6 km/h 3.7 km/h 54 % 0 mm
18:04 3.7 °C -5.1 °C 1005 hPa SW 0.6 km/h 3.7 km/h 53 % 0 mm
18:09 3.6 °C -5.4 °C 1005 hPa Calm   1.9 km/h 52 % 0 mm
18:14 3.4 °C -5.8 °C 1005 hPa SW 0.3 km/h 1.9 km/h 51 % 0 mm
18:19 3.3 °C -5.7 °C 1005.3 hPa SW 0.5 km/h 3.7 km/h 52 % 0 mm
18:24 3.1 °C -6.1 °C 1005.3 hPa Calm   1.9 km/h 51 % 0 mm
18:29 3 °C -6.2 °C 1005.3 hPa WSW 1.9 km/h 4.8 km/h 51 % 0 mm
18:34 2.9 °C -5.9 °C 1005.3 hPa WSW 2.9 km/h 5.6 km/h 52 % 0 mm
18:39 2.8 °C -5.8 °C 1005.3 hPa SW 0.2 km/h   53 % 0 mm
18:44 2.8 °C -5.9 °C 1005.3 hPa SW 0.2 km/h 1.9 km/h 53 % 0 mm
18:49 2.7 °C -5.9 °C 1005.3 hPa SW 2.9 km/h 6.4 km/h 53 % 0 mm
18:54 2.6 °C -6 °C 1005.3 hPa SW 2.9 km/h 3.7 km/h 53 % 0 mm
18:59 2.6 °C -6.1 °C 1005.3 hPa SW 2.1 km/h 3.7 km/h 53 % 0 mm
19:05 2.4 °C -6.2 °C 1005.3 hPa SW 0.5 km/h 1.9 km/h 53 % 0 mm
19:10 2.3 °C -6.3 °C 1005.3 hPa SW 0.5 km/h 5.6 km/h 53 % 0 mm
19:15 2.2 °C -6.4 °C 1005.3 hPa SW 0.3 km/h 1.9 km/h 53 % 0 mm
19:20 2.2 °C -6.4 °C 1005.6 hPa SW 0.3 km/h 3.7 km/h 53 % 0 mm
19:25 2.1 °C -6.6 °C 1005.6 hPa SW 0.5 km/h 1.9 km/h 53 % 0 mm
19:30 1.9 °C -6.4 °C 1005.6 hPa SW 1 km/h 3.7 km/h 54 % 0 mm
19:35 1.8 °C -6.5 °C 1005.6 hPa SW 1.6 km/h 5.6 km/h 54 % 0 mm
19:40 1.7 °C -6.4 °C 1005.6 hPa SW 0.8 km/h 3.7 km/h 55 % 0 mm
19:45 1.7 °C -6.4 °C 1005.6 hPa SW 0.2 km/h 3.7 km/h 55 % 0 mm
19:50 1.6 °C -6.5 °C 1005.6 hPa SW 1 km/h 1.9 km/h 55 % 0 mm
19:55 1.5 °C -6.6 °C 1005.6 hPa SW 0.2 km/h 1.9 km/h 55 % 0 mm
20:00 1.4 °C -6.6 °C 1005.6 hPa SW 0.3 km/h 3.7 km/h 55 % 0 mm
20:05 1.4 °C -6.7 °C 1005.6 hPa SW 1.4 km/h 6.4 km/h 55 % 0 mm
20:10 1.3 °C -6.5 °C 1005.6 hPa SW 0.3 km/h 3.7 km/h 56 % 0 mm
20:15 1.2 °C -6.6 °C 1005.6 hPa SW 1.6 km/h 3.7 km/h 56 % 0 mm
20:20 1.2 °C -6.7 °C 1005.6 hPa SW 0.6 km/h 3.7 km/h 56 % 0 mm
20:22 1.2 °C -6.4 °C 1005.6 hPa SW 3.1 km/h 5.6 km/h 57 % 0 mm
20:27 1.2 °C -6.4 °C 1005.6 hPa SW 1.3 km/h 3.7 km/h 57 % 0 mm
20:32 1.1 °C -6.5 °C 1005.6 hPa SW 0.6 km/h 3.7 km/h 57 % 0 mm
20:37 1.1 °C -6.3 °C 1005.6 hPa SW 0.3 km/h 1.9 km/h 58 % 0 mm
20:42 1 °C -6.3 °C 1005.6 hPa SW 0.6 km/h 1.9 km/h 58 % 0 mm
20:47 0.9 °C -6.4 °C 1005.6 hPa SW 1 km/h 1.9 km/h 58 % 0 mm
20:52 0.8 °C -6.3 °C 1005.6 hPa SW 0.3 km/h 1.9 km/h 59 % 0 mm
20:57 0.8 °C -6.3 °C 1005.6 hPa SW 1.4 km/h 5.6 km/h 59 % 0 mm
21:02 0.7 °C -6.4 °C 1005.6 hPa Calm   3.7 km/h 59 % 0 mm
21:07 0.7 °C -6.2 °C 1005.6 hPa SW 1 km/h 3.7 km/h 60 % 0 mm
21:12 0.7 °C -6.4 °C 1005.6 hPa SW 0.3 km/h 1.9 km/h 59 % 0 mm
21:17 0.6 °C -6.5 °C 1005.6 hPa SW 0.3 km/h 1.9 km/h 59 % 0 mm
21:23 0.6 °C -6.3 °C 1005.6 hPa SW 0.5 km/h 3.7 km/h 60 % 0 mm
21:28 0.6 °C -6.3 °C 1005.3 hPa Calm     60 % 0 mm
21:33 0.5 °C -6.4 °C 1005.3 hPa Calm   1.9 km/h 60 % 0 mm
21:38 0.4 °C -6.4 °C 1005.3 hPa Calm   1.9 km/h 60 % 0 mm
21:43 0.4 °C -6.3 °C 1005.3 hPa Calm     61 % 0 mm
21:48 0.3 °C -6.4 °C 1005.3 hPa Calm     61 % 0 mm
21:53 0.2 °C -6.2 °C 1005.3 hPa Calm   1.6 km/h 62 % 0 mm
21:58 0.2 °C -6.3 °C 1005.3 hPa SW 0.3 km/h 3.2 km/h 62 % 0 mm
22:03 0.1 °C -6.4 °C 1005.3 hPa SW 0.2 km/h 1.9 km/h 62 % 0 mm
22:17 -0.1 °C -6.3 °C 1005.3 hPa Calm     63 % 0 mm
22:22 -0.2 °C -6.2 °C 1005.6 hPa Calm     64 % 0 mm
22:27 -0.2 °C -6.2 °C 1005.6 hPa SW 0.8 km/h 1.9 km/h 64 % 0 mm
22:29 -0.2 °C -6.2 °C 1005.3 hPa Calm   1.9 km/h 64 % 0 mm
22:30 -0.3 °C -6.3 °C 1005.6 hPa Calm     64 % 0 mm
22:35 -0.3 °C -6.1 °C 1005.6 hPa Calm     65 % 0 mm
22:40 -0.4 °C -6.2 °C 1005.6 hPa Calm     65 % 0 mm
22:45 -0.4 °C -6.2 °C 1005.6 hPa Calm     65 % 0 mm
22:50 -0.5 °C -6.1 °C 1005.6 hPa SW 0.2 km/h 1.9 km/h 66 % 0 mm
22:56 -0.6 °C -6.3 °C 1005.6 hPa SW 0.2 km/h 1.9 km/h 65 % 0 mm
23:01 -0.6 °C -6.2 °C 1005.6 hPa SW 0.2 km/h 1.9 km/h 66 % 0 mm
23:06 -0.7 °C -6.2 °C 1005.6 hPa Calm     66 % 0 mm
23:11 -0.7 °C -6.1 °C 1005.6 hPa SW 0.2 km/h 1.9 km/h 67 % 0 mm
23:16 -0.7 °C -6.1 °C 1005.6 hPa Calm     67 % 0 mm
23:21 -0.8 °C -6.2 °C 1005.6 hPa Calm     67 % 0 mm
23:26 -0.8 °C -6.2 °C 1005.6 hPa SW 1.1 km/h 3.7 km/h 67 % 0 mm
23:31 -0.8 °C -5.9 °C 1005.6 hPa Calm     68 % 0 mm
23:36 -0.8 °C -6 °C 1005.6 hPa Calm     68 % 0 mm
23:41 -0.8 °C -6 °C 1005.6 hPa SW 0.5 km/h 3.2 km/h 68 % 0 mm
23:46 -0.8 °C -6 °C 1005.6 hPa SW 1.3 km/h 3.2 km/h 68 % 0 mm
23:51 -0.8 °C -5.9 °C 1005.6 hPa SW 1.6 km/h 3.7 km/h 68 % 0 mm
23:56 -0.8 °C -5.9 °C 1005.6 hPa SW 2.3 km/h 4.8 km/h 68 % 0 mm
Crab Meadow Weather
Compliments of Weather Underground - 3 mb

Script developed by  Jim McMurry - jmcmurry@mwt.net Adapted for the template by  Wim van der Kuil - Leuven-Template.eu

Astronomy: The rings of Saturn are made of ice and rock.